Tracking 28766 objects as of 14-Apr-2024
HD Live streaming from Space Station
objects crossing your sky now

STARLINK-2192

Track STARLINK-2192 now!
10-day predictions
STARLINK-2192 is classified as:


NORAD ID: 47769
Int'l Code: 2021-017AZ
Perigee: 553.4 km
Apogee: 555.4 km
Inclination: 53.1 °
Period: 95.6 minutes
Semi major axis: 6925 km
RCS: Unknown
Launch date: March 4, 2021
Source: United States (US)
Launch site: AIR FORCE EASTERN TEST RANGE (AFETR)
Your satellite tracking list
Your tracking list is empty




NASA's NSSDC Master Catalog

Two Line Element Set (TLE):
1 47769U 21017AZ  24104.29860320  .00000915  00000-0  80348-4 0  9997
2 47769  53.0544  73.3469 0001415  96.7882 263.3268 15.06391287173248
Source of the keplerian elements: AFSPC